weather.gov     
National Weather Service

Regional Weather Roundup
NWS Homepage
This page is being discontinued on March 12, 2014.
The same data is available at this site. Please update your bookmarks.
Thank you, and we apologize for the inconvenience.
Please send an email to SR-SRH.Webmaster@noaa.gov with any concerns.


Current Version
Previous Version:    01  02  03  04  05  06  07  08  09  10  11  12  13  14  15  16  17  18  19  20  21  22  23  24  25  26  27  28  29  30  
   31  32  33  34  35  36  37  38  39  40  41  42  43  44  45  46  47  48  49  50  51  52  53  54  55  56  57  58  59  60  
[Printable]
929
ASUS44 KLIX 010010
RWRLA
LOUISIANA WEATHER ROUNDUP
NATIONAL WEATHER SERVICE NEW ORLEANS LA
600 PM CST SAT JAN 31 2015

NOTE: "FAIR" INDICATES FEW OR NO CLOUDS BELOW 12,000 FEET WITH NO
      SIGNIFICANT WEATHER AND/OR OBSTRUCTIONS TO VISIBILITY.
      SKY/WX - SKY CONDITION AND SIGNIFICANT WEATHER.
      TMP - AIR TEMPERATURE.    DP   - DEWPOINT TEMPERATURE.
      RH  - RELATIVE HUMIDITY.  PRES - PRESSURE.
      HX  - HEAT INDEX.         WCI  - WIND CHILL INDEX.

*  THESE STATIONS ARE NOT NWS OR FAA STATIONS AND ARE NOT UNDER
   NWS QUALITY CONTROL.

LAZ040-048-061>063-065-066-069-010100-
SOUTHEAST LOUISIANA

CITY           SKY/WX    TMP DP  RH WIND       PRES   REMARKS
N.O. AUDUBON     N/A     59  53  80 MISG        N/A
6HR MIN TEMP:  58; 6HR MAX TEMP:  63;

N.O. INTL ARPT CLOUDY    57  49  74 E7        30.18S
6HR MIN TEMP:  57; 6HR MAX TEMP:  61;

N.O. LAKEFRONT CLOUDY    58  50  75 E12       30.19S
6HR MIN TEMP:  58; 6HR MAX TEMP:  61;

N.O. DOWNTOWN* NOT AVBL
SLIDELL        MOCLDY    55  47  74 E3        30.20R
6HR MIN TEMP:  55; 6HR MAX TEMP:  63;

BATON ROUGE    MOCLDY    56  47  71 E12       30.16S
6HR MIN TEMP:  56; 6HR MAX TEMP:  62;

BOOTHVILLE     MOCLDY    59  53  80 E5        30.18R
6HR MIN TEMP:  59; 6HR MAX TEMP:  66;

BELLE CHASSE   CLOUDY    59  48  67 E9        30.17S
6HR MIN TEMP:  58; 6HR MAX TEMP:  64;

BOGALUSA*        N/A     58  46  65 S7        30.21S
6HR MIN TEMP:  57; 6HR MAX TEMP:  65;

GALLIANO*      MOCLDY    61  54  76 MISG      30.17R
6HR MIN TEMP:  61; 6HR MAX TEMP:  68;

NEW ROADS*     FAIR      56  46  67 E7        30.15S
6HR MIN TEMP:  56; 6HR MAX TEMP:  63;

GONZALES*      FAIR      55  49  80 E5        30.16F
6HR MIN TEMP:  55; 6HR MAX TEMP:  61;

HAMMOND*       MOCLDY    55  46  71 SE5       30.20S
HOUMA*         CLOUDY    59  52  77 E14       30.16S
PORT FOURCHON* CLEAR     63  55  77 E13G18    30.18R

$$

LAZ041-044-053-054-010100-
SOUTHWEST LOUISIANA

CITY           SKY/WX    TMP DP  RH WIND       PRES   REMARKS
LAKE CHARLES   CLOUDY    61  52  72 SE10      30.09S
6HR MIN TEMP:  59; 6HR MAX TEMP:  64;

LAFAYETTE      MOCLDY    62  49  62 SE6       30.12F
6HR MIN TEMP:  59; 6HR MAX TEMP:  65;

PATTERSON      CLOUDY    61  50  67 E12       30.14F
6HR MIN TEMP:  61; 6HR MAX TEMP:  64;

SALT POINT       N/A     61  52  72 E8        30.12S
6HR MIN TEMP:  61; 6HR MAX TEMP:  67;

NEW IBERIA     PTCLDY    62  49  62 E9        30.13S
6HR MIN TEMP:  61; 6HR MAX TEMP:  66;

CHENAULT AIRPK NOT AVBL

$$

LAZ027-028-010100-
CENTRAL LOUISIANA

CITY           SKY/WX    TMP DP  RH WIND       PRES   REMARKS
FORT POLK      CLOUDY    58  48  69 E3        30.09F
6HR MIN TEMP:  54; 6HR MAX TEMP:  61;

ALEXANDRIA INT CLOUDY    55  42  61 E6        30.12R
6HR MIN TEMP:  55; 6HR MAX TEMP:  60;

ALEXANDRIA     CLOUDY    57  41  55 CALM      30.13R
6HR MIN TEMP:  55; 6HR MAX TEMP:  63;


$$

LAZ001-002-010100-
NORTHWEST LOUISIANA

CITY           SKY/WX    TMP DP  RH WIND       PRES   REMARKS
SHREVEPORT     CLOUDY    57  35  43 SE8       30.09R
6HR MIN TEMP:  54; 6HR MAX TEMP:  58;

BARKSDALE AFB  CLOUDY    53  36  52 SE5       30.09S
6HR MIN TEMP:  53; 6HR MAX TEMP:  58;

DTN SHREVEPORT CLOUDY    54  34  46 E7        30.09S
6HR MIN TEMP:  53; 6HR MAX TEMP:  57;


$$

LAZ014-016-010100-
NORTHEAST LOUISIANA

CITY           SKY/WX    TMP DP  RH WIND       PRES   REMARKS
MONROE         CLOUDY    53  34  48 E3        30.15S
6HR MIN TEMP:  52; 6HR MAX TEMP:  58;

TALLULAH       MOCLDY    51  35  54 SE6       30.16S
6HR MIN TEMP:  51; 6HR MAX TEMP:  60;


$$





U.S. Dept. of Commerce
NOAA National Weather Service
1325 East West Highway
Silver Spring, MD 20910
E-mail: w-nws.webmaster@noaa.gov
Page last modified: May 16, 2007
NATIONAL WEATHER SERVICE: for Safety, for Work, for Fun - FOR LIFE